Zurück zum Katalog

STARLINK-37074

AktivKommunikationVLEO
NORAD 68073·PAYLOAD·🇺🇸 United States

Gestartet Mar 4, 2026 von Vandenberg Space Force Base

Loading…

Nächste Überflüge (nächste 24 Stunden)

TLE

AktuellSource: CelesTrak SupGP

Epoche: Sep 15, 2026, 04:16 UTC

1 68073C 26042E   26258.17826389  .00032465  00000+0  95987-3 0  2583
2 68073  53.1602  14.4681 0001298  84.2807 303.1755 15.34351640    13

Verfolge STARLINK-37074 in Echtzeit mit AllMySat

Download on the App Store